STARLINK-33718, 63476

Orbit data source: Space-Track

STARLINK-33718, 63476 is a payload satellite owned by SpaceX/Seattle (US) in LEO that was launched on Sun, 06 Apr 2025 UTC via an FALCON 9 launch vehicle from the Air Force Eastern Test Range (AFETR). Payload-class satellites include a variety of spacecraft equipped with specific instruments for various scientific and technological missions. These include communications satellites like Starlink; space stations such as the ISS; scientific satellites like the Hubble; Earth observation satellites from companies like Planet Labs, Umbra, and HawkEye 360; GPS; miniature CubeSats for education and research; and military/defense satellites.

Loading next visibility...
Identifier
63476, 2025-070S
Orbit
LEO
Country
Flag of USUS
Related business
Manufacturer
SpaceX/Seattle
Mission
Operational Commercial Communications
Bus & Motor
STARLINK V2MO, Unknown motor
Mass
575 kg wet, ~530 kg dry
Launch date (UTC)
2025-04-06 (1 year ago)
Launch vehicle
FALCON 9
Launch site
Air Force Eastern Test Range (AFETR)
Object type
Payload
Rocket body
Debris
Shape & HBR
Box + 2 Pan, 17.7 m
Radar Cross Section
36.964 m², Large (>1 m²)

Expand to show TLE details & history
Last TLE update: 8 hours ago

TLE from 8 hours ago
0 STARLINK-33718
1 63476U 25070S   26169.93254395  .00012885  00000-0  47670-3 0  9995
2 63476  43.0002  47.7353 0001240 280.4641  79.6071 15.27596809 68464
Epoch: 2026-06-18T22:22Z
TLE epoch observation values (Epoch: 2026-06-18T22:22:51.797Z)
Latitude
-0°
Longitude
164.8507°
Altitude
482.621 km
Speed
7.626 km/s
True Right ascension
03h 10m 56s
True Declination
0° 00' 00"
Sunlit
Object was in daylight at epoch
Visualization orbit readout
Latitude
Unknown
Longitude
Unknown
Altitude
Unknown
Speed
Unknown
Apparent Right ascension
Unknown
Apparent Declination
Unknown
Sunlit
N/A
Visualization observer readout
Local Sidereal Time
17:13:29
Azimuth
Unknown
Elevation
Unknown
Doppler factor
Unknown
Orbital elements
Apogee altitude
485.795 km
Perigee altitude
484.093 km
Semi-major axis
6,863.081 km
Eccentricity
0.00012
Inclination
43.0002°
RAAN
47.7353°
Arg. of periapsis
280.4641°
True anomaly
79.62108°
Mean anomaly
79.6071°
Eccentric anomaly
79.61409°
Mean motion
3.81737 °/min
Orbital period
94.31 mins
BSTAR
0.0004767
Loading maneuver chart data...
Computing Atmospheric mass density...
Loading historical data...
Loading historical data...
Loading historical data...
Loading historical data...
Loading historical data...
Loading historical data...
Loading historical data...

Documentation

Showing up to 5 results
|